Temp_Advection
nan nan nan nan nan nan nan nan nan nan nan nan nan nan nan nan nan nan nan nan nan nan nan nan nan nan nan nan nan nan nan nan nan nan nan nan nan nan nan nan nan nan nan nan nan nan nan nan nan nan nan nan nan nan
nan 0 -0 -0 0 0 0 -1 -0 0 1 0 -0 -0 -0 -0 -0 -0 -0 0 0 0 0 -0 -0 -0 -0 0 0 0 -1 -0 -0 -0 0 0 -0 -0 0 -0 -1 -1 -1 -1 -1 -0 -0 2 0 0 1 1 1 nan
nan -0 0 -0 -0 0 0 0 -0 0 0 0 -0 -1 -0 -0 -0 0 0 0 0 -0 -0 -0 0 0 1 0 -0 -0 -0 -0 -0 -0 0 0 -0 -0 0 0 0 -0 0 -0 0 0 0 0 1 0 0 0 0 nan
nan -1 -1 -0 -0 -0 0 0 -0 -0 0 0 -0 -0 -0 -0 0 0 0 0 0 -0 -0 0 0 0 0 -0 -0 0 -1 -2 -2 0 -0 0 -0 -0 0 0 0 0 0 0 0 0 0 0 0 1 1 0 0 nan
nan -0 -0 -1 -0 -0 0 0 -0 -0 0 0 0 0 -0 0 1 0 0 0 0 -0 -0 -0 0 0 0 0 -0 -1 -1 -2 0 0 -0 -0 -0 -0 0 0 0 0 0 -0 -0 0 0 0 0 0 0 1 0 nan
nan -0 -0 -1 -0 -0 -0 0 -0 -0 0 0 -0 -0 0 1 1 0 0 -0 -0 -0 -0 0 0 -0 -0 0 -0 -0 -0 -0 0 0 -0 0 0 -0 0 0 0 1 0 0 -0 1 0 0 0 0 0 0 0 nan
nan -0 -0 -0 -1 -0 -0 0 0 -0 -0 0 -0 0 0 1 0 0 0 0 0 0 0 0 -0 0 0 0 0 0 -0 -0 0 0 0 -0 0 -0 -0 0 1 1 1 0 0 1 0 0 0 0 0 0 0 nan
nan -0 -0 0 -1 -1 -0 -0 0 -0 -0 0 0 0 -0 -0 -0 0 0 0 0 0 -0 -0 -0 -0 0 -0 0 0 0 0 0 -0 0 -0 -0 0 0 0 -0 -0 0 0 0 -0 0 0 1 0 0 0 0 nan
nan -0 -0 -0 -0 -1 -0 -1 0 0 -0 0 0 0 0 0 0 -0 0 0 0 0 -0 -0 -0 -0 -0 0 -0 0 0 0 0 0 0 -0 -0 -0 0 1 0 0 0 0 1 1 0 0 0 1 0 0 0 nan
nan -1 -0 -0 -0 -1 -0 -0 -1 0 -0 -0 0 0 0 -0 -0 -0 0 -0 -0 -0 -0 0 -0 -0 -0 -0 -0 0 -0 0 0 0 -0 0 0 1 -0 0 0 -0 0 0 0 1 1 0 0 0 0 0 0 nan
nan -1 -1 -1 -0 -1 -0 -0 -1 -0 -0 -0 -0 -0 0 0 -0 -0 -0 -0 -0 -0 -0 -0 0 -0 0 -0 -0 -0 0 -0 -0 -0 0 0 0 1 1 0 0 0 0 0 0 0 0 0 0 1 0 0 0 nan
nan -0 -0 -0 -1 -0 -0 -0 0 -0 -0 -0 -0 -0 -0 -0 -0 -0 -0 -0 0 -0 -0 -0 0 0 0 0 0 0 -0 -0 0 -0 -0 0 0 0 1 0 0 0 0 0 0 1 1 1 1 0 0 1 1 nan
nan -0 0 -0 -1 -0 -0 -0 0 0 0 0 -0 -0 -0 0 0 0 0 0 -0 -0 -0 -0 -0 -0 -0 -0 0 -0 -0 0 -0 0 -0 0 0 1 1 1 1 1 1 1 0 0 1 1 1 1 1 1 1 nan
nan -0 0 0 -0 -1 -0 -0 -0 -0 -0 -0 0 0 -0 -0 -0 -0 -0 0 -0 -0 -0 -0 -0 -0 -0 0 -0 -0 0 -0 -0 -0 -0 -0 0 1 1 1 1 1 0 1 0 0 1 1 1 1 1 0 0 nan
nan -0 0 0 -0 -0 -0 0 0 0 -0 -0 -0 0 0 0 0 -0 -1 0 0 -0 -0 0 0 0 -0 0 0 -0 -0 -0 -0 -0 -0 -0 0 1 1 1 1 1 1 1 1 1 0 0 1 0 0 0 0 nan
nan 0 0 -0 -0 -0 -0 -0 0 0 -0 -0 -0 -0 -0 -0 -0 0 0 0 0 0 0 -0 0 -0 -0 -0 -0 -0 -0 0 -0 -0 -1 -0 0 1 1 1 1 1 1 1 1 1 1 0 0 0 0 0 0 nan
nan -0 -0 -0 -0 -0 -0 -0 -0 0 0 -0 -0 -0 -1 0 -0 0 0 -0 0 0 -0 0 -0 0 -0 -0 0 -0 -0 -0 -0 -1 -0 -0 -0 0 0 1 1 1 1 0 0 0 0 0 0 0 -0 0 0 nan
nan -0 -0 -0 -0 -0 -0 -0 -0 -0 -0 -0 -0 -0 -0 -0 -0 -0 0 -0 -0 -0 0 0 -0 -0 0 0 -0 -0 -0 -0 -0 -1 -0 -0 -0 -0 -0 0 0 0 0 0 0 0 -0 -0 -0 -0 -0 -0 -0 nan
nan -0 -0 -0 -0 -0 0 0 -0 -0 -0 -0 -0 -0 -0 0 -0 -0 -0 -0 -0 -0 -0 -0 -0 -0 -0 -0 -0 -0 -0 -0 -1 -0 0 1 0 0 -0 -0 0 0 0 0 0 -0 0 0 0 -0 -0 0 0 nan
nan 0 0 0 0 0 0 0 0 -0 -0 0 -0 0 0 -0 -0 -0 0 -0 -0 -0 -0 -0 -1 -1 -1 -1 -0 0 -0 -0 -0 -1 -0 0 0 0 0 -0 -0 0 0 0 0 0 -0 -0 0 0 0 0 0 nan
nan 0 -0 0 0 0 -0 -0 0 -0 -0 0 -0 -0 -0 -0 -0 -0 -0 -0 -0 -0 -1 -1 -1 -1 -0 -0 0 0 0 -0 -0 -0 -0 0 0 0 0 -0 0 -0 0 0 0 0 -0 -0 0 -0 -0 0 0 nan
nan -0 0 0 0 0 -0 -0 -0 -0 -0 -0 -0 -0 0 0 -0 0 0 -0 -1 -1 -1 -1 -1 -0 -0 -0 -0 -0 0 0 0 -0 -0 -0 -0 0 0 0 0 -0 -0 0 -0 -0 0 0 0 0 0 0 0 nan
nan -0 -0 0 0 0 -0 -0 -0 -0 0 -0 0 0 0 0 -0 -0 -1 -1 -1 -1 -0 -0 -0 -0 -0 -0 -0 -0 -0 0 0 0 0 -0 -0 -0 -0 0 0 0 0 -0 -0 0 0 0 0 0 0 0 0 nan
nan -0 -0 -0 -0 0 -0 -0 -0 -0 -0 -0 -0 -0 -0 -0 -0 -0 -0 -0 -0 -0 -0 -0 -0 -0 -0 -1 -1 -1 -0 -0 -0 0 0 0 0 0 0 0 0 0 0 0 0 0 0 0 0 0 0 0 0 nan
nan -0 -0 0 -0 0 -0 -0 -0 -0 -0 -0 -0 -0 -0 -0 -0 -0 -0 -0 -1 -1 -0 -0 -0 -0 -1 -1 -1 -1 -1 -0 -0 -0 1 1 1 0 0 0 0 0 0 0 0 1 0 0 0 0 0 0 0 nan
nan 0 -0 0 0 -0 -0 -0 -0 -0 -0 -0 -0 -0 -0 -0 -0 -1 -0 -1 -0 -0 -0 -0 -0 -0 -1 -1 -0 -1 -1 -0 -0 -0 0 1 1 1 0 0 1 1 1 0 0 0 0 0 0 0 0 0 0 nan
nan -0 0 -0 0 -0 -0 -0 -0 -0 -0 -0 -0 -0 -0 0 -0 -0 -0 -0 -0 -0 -0 -0 -0 -0 -0 -0 -0 -0 0 0 -0 -0 -0 0 1 2 1 1 0 1 1 1 0 0 0 0 0 0 0 0 0 nan
nan 0 0 0 -0 -0 -0 -0 0 0 -0 -0 -0 -0 -0 -0 -0 -0 -0 -0 -0 -0 -0 -0 -0 -0 -0 -0 -0 -0 0 0 -0 -0 -0 -0 -0 0 1 1 1 1 1 1 1 1 1 0 0 0 0 0 0 nan
nan -0 -1 0 0 0 0 0 0 -0 -0 -0 -0 -0 -0 -0 -0 -0 -0 -0 -0 -0 -0 -0 -0 -0 -0 -0 -0 -0 0 0 -0 -0 -1 -1 -0 -1 -0 0 0 0 1 1 1 1 1 0 1 0 0 0 0 nan
nan 0 -0 -0 0 0 -0 -0 -0 -0 -0 -0 -0 -0 0 -0 -0 0 0 0 0 -0 -0 -0 -0 -0 -0 -0 -0 -0 -0 -0 -0 -0 -0 -0 -0 -0 -0 -0 -0 0 0 0 0 0 0 0 0 0 0 0 0 nan
nan 0 0 -0 -0 -1 -0 -0 -0 0 0 0 0 -0 -0 -0 -0 0 0 0 0 0 0 0 -0 -0 -0 -0 -0 -0 -0 -0 -1 -0 -0 -0 0 -0 -0 -0 -0 -0 -0 -0 -0 0 0 0 0 0 0 0 0 nan
nan -0 -0 0 -0 -0 0 -0 -0 -0 -0 -0 -0 0 -0 -0 0 -0 0 0 -0 -0 0 0 -0 -0 0 -0 -0 -0 -0 -0 -0 -0 -0 -0 0 -0 -0 0 -0 -0 -0 -0 -0 0 0 -0 -0 0 0 0 0 nan
nan nan nan nan nan nan nan nan nan nan nan nan nan nan nan nan nan nan nan nan nan nan nan nan nan nan nan nan nan nan nan nan nan nan nan nan nan nan nan nan nan nan nan nan nan nan nan nan nan nan nan nan nan nan
Wind_Speed
31 33 35 36 38 38 38 38 36 34 29 32 3 6 21 23 15 9 11 18 11 5 6 8 7 3 3 3 3 6 12 8 4 5 8 4 4 7 9 19 20 14 11 6 5 6 9 18 16 13 6 6 10 14
30 31 32 34 35 36 36 37 34 31 34 32 14 19 19 24 25 19 7 23 10 5 1 4 7 7 9 11 7 5 7 6 7 4 3 3 3 2 12 9 18 9 7 9 13 7 5 29 9 18 15 16 14 20
30 30 31 32 33 34 35 36 35 31 30 29 27 22 24 22 23 30 20 7 2 3 6 10 10 6 13 17 15 4 10 12 14 12 4 2 3 5 5 5 14 6 13 6 9 6 17 20 22 20 21 20 23 21
32 30 30 31 32 33 33 34 35 30 28 30 26 12 17 23 24 23 28 23 18 3 2 4 7 6 9 14 20 32 40 28 26 15 2 1 2 3 1 7 9 5 12 11 4 13 19 18 24 26 23 23 25 22
29 30 30 29 30 32 32 33 34 30 23 28 24 3 13 19 19 21 26 27 24 8 2 1 5 8 14 18 26 34 37 36 9 3 3 2 2 2 2 2 7 9 10 10 6 16 6 22 29 27 27 25 23 20
28 29 29 29 30 31 32 32 33 30 19 24 19 11 11 22 28 23 9 28 29 25 2 2 2 9 13 10 8 22 23 11 7 3 3 5 5 2 4 5 7 15 19 12 6 29 19 27 29 28 27 25 20 17
28 28 29 29 29 30 32 32 31 27 14 14 23 17 6 17 28 15 4 6 24 18 3 2 2 4 14 11 6 11 9 5 5 3 3 3 3 2 2 3 14 21 24 15 20 30 20 32 30 28 27 21 19 17
27 28 29 29 29 29 30 31 30 23 9 4 5 20 20 15 13 11 14 17 17 6 1 2 2 2 9 7 3 9 3 3 2 3 4 3 4 2 3 8 21 22 23 21 29 22 27 30 28 25 23 22 19 16
25 26 26 27 29 29 29 30 29 18 6 3 4 4 8 5 5 7 17 16 10 3 2 2 2 3 3 4 5 7 7 4 5 3 3 4 2 2 11 15 18 28 19 25 29 27 30 28 26 24 22 21 19 18
22 24 25 27 28 27 26 28 28 15 1 2 4 2 1 3 4 5 3 2 3 4 1 1 2 3 1 3 1 1 3 3 3 4 6 4 6 11 19 19 25 23 27 27 27 25 26 26 26 26 23 20 17 14
21 22 25 26 26 25 26 24 25 16 8 2 3 2 3 3 4 5 2 3 5 3 3 3 4 6 3 3 2 2 2 1 2 1 2 3 5 8 17 19 24 26 25 23 23 24 25 25 26 25 22 18 13 11
22 20 23 24 24 24 25 22 22 18 10 6 6 4 2 4 5 3 1 2 2 2 3 6 5 4 3 1 2 2 2 2 3 5 2 4 8 7 19 18 16 21 25 24 24 24 23 23 22 20 17 15 13 14
22 19 21 23 22 23 24 22 19 14 3 2 3 2 4 2 3 3 6 3 3 3 4 8 5 6 3 1 1 1 1 3 5 1 5 4 12 13 15 20 18 21 24 22 22 21 21 20 19 20 19 16 12 8
20 17 19 22 19 24 22 20 15 9 3 2 2 3 3 0 3 3 6 4 5 11 12 11 4 2 2 1 2 3 2 3 2 3 3 9 14 19 17 18 20 19 23 23 23 20 18 18 20 16 13 10 10 9
16 15 14 15 24 23 20 15 8 6 2 2 4 3 2 2 4 4 9 5 12 15 11 5 3 2 2 1 1 3 1 3 3 1 5 13 21 19 19 21 25 24 23 23 22 19 18 15 13 12 11 11 7 6
13 9 8 21 24 19 17 8 6 3 1 2 3 2 4 2 2 2 7 7 10 12 6 2 2 2 1 3 3 3 4 2 3 5 17 24 22 21 20 19 19 20 19 18 17 15 15 13 11 10 7 5 4 3
5 5 20 25 19 14 12 7 5 3 3 2 1 4 13 8 4 4 6 3 2 4 1 2 1 3 0 2 3 3 3 5 8 16 19 23 22 22 22 21 20 19 17 17 16 15 14 12 9 8 7 4 3 2
10 14 22 17 16 11 6 6 3 3 2 5 2 6 9 8 4 5 4 3 3 2 2 2 2 2 1 2 3 4 6 15 17 20 20 21 22 22 20 20 20 19 18 16 16 15 13 12 10 8 7 5 4 4
12 14 15 12 9 6 5 5 4 2 2 3 2 3 2 0 6 6 3 4 7 4 2 1 1 2 4 5 7 8 11 16 17 18 22 21 21 21 22 20 19 17 15 15 15 13 11 10 7 7 7 6 6 4
8 9 16 7 9 5 4 3 2 4 3 3 4 5 3 2 2 1 1 3 4 2 2 3 5 5 6 14 14 13 14 17 20 16 13 16 18 18 17 17 15 14 12 11 11 11 9 8 8 8 7 7 7 6
7 5 6 7 3 3 2 3 3 1 3 3 2 4 1 2 3 2 2 1 2 4 4 9 11 12 14 12 17 13 9 10 13 10 13 14 16 14 13 10 8 10 11 13 13 13 10 9 10 9 8 8 7 6
4 6 3 4 3 2 1 3 5 4 3 5 5 3 2 1 2 2 5 3 4 8 7 8 10 9 8 10 11 9 3 5 4 11 15 16 18 16 16 15 14 14 14 16 16 16 14 13 11 10 8 6 5 5
5 4 2 2 1 2 2 6 2 3 2 2 2 1 2 2 5 3 3 5 6 10 11 11 12 10 7 5 4 5 5 4 5 7 13 12 15 15 14 15 13 14 15 16 16 16 16 14 11 9 7 6 6 6
3 2 3 2 4 2 3 3 5 4 5 3 3 4 3 3 5 4 3 3 7 11 14 15 13 14 13 14 13 11 8 4 3 1 12 12 14 16 15 13 15 15 16 17 18 16 15 13 10 8 6 6 7 7
3 2 2 2 2 1 2 2 4 4 3 5 5 3 3 5 2 3 3 3 10 12 12 13 14 13 12 11 11 11 10 8 8 3 6 14 17 18 16 16 16 16 17 18 18 17 15 13 12 10 9 9 8 7
2 1 2 1 0 0 2 2 2 4 4 4 3 3 5 4 2 4 3 6 7 8 10 10 12 10 12 11 10 13 13 7 7 3 7 8 14 19 21 21 19 18 16 15 16 16 14 13 12 11 9 9 10 8
3 3 2 1 1 2 1 2 5 2 2 1 2 3 3 3 4 3 6 6 5 6 6 7 7 8 8 9 9 10 12 13 9 7 7 8 12 16 20 16 16 17 17 18 15 13 13 13 11 10 8 7 5 6
1 2 4 2 3 3 2 1 2 2 1 3 3 2 3 4 4 4 4 3 3 3 4 5 6 6 6 7 8 8 8 10 8 11 11 12 13 15 16 16 14 12 15 17 18 18 17 16 14 13 10 9 7 6
3 5 6 3 1 2 2 1 1 3 2 2 2 3 3 4 3 3 4 1 1 1 2 3 6 6 6 7 9 9 8 8 13 13 13 12 11 13 11 9 8 8 8 7 9 11 13 14 14 13 12 11 10 10
3 5 3 2 2 2 3 5 7 6 2 2 3 2 2 4 3 1 1 1 1 3 2 2 3 4 5 6 7 7 10 9 8 8 9 9 8 7 5 4 4 4 4 4 4 4 5 6 6 5 4 4 4 4
7 4 3 3 2 8 8 4 2 2 1 1 1 2 3 3 0 1 4 3 3 3 3 3 3 3 4 5 5 5 4 7 8 6 3 2 3 2 5 4 4 3 2 3 3 3 5 4 5 6 7 7 6 7
4 2 3 2 3 4 4 3 2 2 5 4 5 2 0 3 3 6 4 6 4 5 5 4 3 3 2 2 5 5 7 6 4 8 6 4 5 8 8 5 5 5 5 7 7 7 6 7 7 7 8 9 8 7
4 4 3 4 4 5 3 3 3 2 3 3 3 2 3 3 2 2 3 7 4 5 5 5 4 4 5 7 8 6 5 5 8 7 7 7 7 7 7 5 5 9 9 7 7 7 8 8 8 8 8 9 10 12
Wind_Direction
334 338 342 345 347 350 351 352 351 353 355 3 248 232 201 190 156 161 198 177 185 192 178 160 187 123 138 89 308 338 199 201 263 229 212 166 254 180 150 160 171 170 161 175 136 177 234 151 157 180 141 106 92 143
332 335 339 343 345 349 352 352 350 350 354 353 333 220 219 213 215 186 231 204 218 248 154 215 232 234 250 244 218 193 312 226 194 196 246 141 198 253 149 150 176 184 203 159 189 183 160 151 145 133 142 127 124 115
334 335 338 342 344 346 351 352 351 348 350 347 347 219 216 216 218 209 222 221 229 292 270 241 249 222 234 245 249 214 268 243 191 186 172 180 198 195 160 147 156 193 197 144 137 178 154 142 144 144 140 132 123 124
337 338 338 342 344 345 350 353 353 349 350 355 360 199 213 216 215 218 225 231 225 237 240 224 266 238 274 260 245 244 244 253 260 182 107 203 270 10 97 147 148 147 147 147 112 151 140 150 149 144 141 139 135 137
333 338 340 345 347 346 348 353 354 350 353 1 354 183 212 207 206 214 216 222 222 218 299 152 259 327 318 276 245 233 232 235 204 155 148 123 302 25 61 69 153 159 176 171 190 171 139 156 152 155 148 149 146 145
330 333 338 342 345 346 347 352 355 351 347 353 358 36 188 195 208 205 208 231 235 225 263 212 314 339 1 6 227 184 200 176 141 121 72 118 171 217 162 163 178 154 178 164 145 166 145 153 161 160 150 152 156 162
332 334 336 338 341 344 346 350 356 352 348 21 41 45 84 161 174 173 211 232 206 203 185 179 198 326 337 357 22 64 74 55 80 94 137 154 173 196 206 133 159 166 165 165 155 159 163 168 160 161 158 160 162 167
327 331 333 335 337 340 343 347 355 353 339 20 22 34 41 77 106 102 136 137 137 136 191 211 118 176 351 340 26 8 72 78 75 113 113 173 142 208 71 144 148 158 158 164 157 159 157 160 159 153 154 159 167 172
325 329 332 335 336 338 342 346 353 355 306 301 272 348 19 25 45 104 90 80 81 122 161 243 215 113 83 16 2 11 5 52 14 81 137 178 177 171 150 149 162 148 148 151 155 150 146 144 149 157 164 167 168 172
319 324 327 329 334 335 340 345 352 2 336 348 347 279 346 155 169 149 5 137 176 195 263 50 133 104 229 140 93 38 2 43 33 7 344 59 54 95 124 148 139 134 143 151 147 155 157 158 160 163 164 164 169 163
317 319 320 325 332 336 338 344 351 7 17 324 285 306 351 327 176 226 213 207 170 154 126 61 96 115 75 89 93 96 103 149 84 223 140 128 141 135 136 130 140 145 157 164 157 160 160 162 160 157 151 142 145 152
319 319 323 326 330 331 338 341 346 350 328 291 293 309 287 243 234 222 262 284 265 119 113 151 146 105 98 34 69 53 115 167 107 170 132 127 138 146 124 130 139 152 156 162 161 158 159 155 150 138 138 143 157 172
317 315 322 324 325 331 334 338 341 342 341 275 275 259 272 263 269 233 184 201 147 141 135 153 145 147 179 122 54 85 63 58 139 172 158 120 137 129 125 140 145 144 150 150 138 131 127 122 135 152 155 167 172 181
316 317 322 322 321 333 331 337 342 12 356 275 272 279 289 302 347 4 328 36 117 146 147 153 135 118 129 119 141 73 62 164 218 180 124 135 135 148 155 147 136 130 128 133 129 129 143 150 148 152 153 149 153 163
321 326 322 320 327 328 328 338 9 12 311 298 321 331 352 281 269 286 291 112 127 140 131 110 122 91 65 56 90 113 166 188 204 155 116 134 138 137 128 123 134 138 139 134 140 151 153 153 149 148 154 150 170 191
342 348 343 320 324 330 331 358 3 335 326 297 8 238 264 171 115 5 116 110 121 130 139 186 166 100 158 151 167 186 176 129 77 92 123 134 130 134 135 142 147 142 152 158 163 164 165 164 145 145 155 144 166 159
342 347 325 323 331 343 354 10 349 0 352 17 10 329 310 98 107 129 116 94 90 188 199 120 118 55 216 235 140 25 40 91 105 117 132 140 143 142 142 150 155 158 156 157 159 154 150 148 150 147 146 149 137 162
313 320 314 332 352 351 2 9 346 327 62 21 350 18 358 19 29 85 107 28 305 327 354 33 305 186 185 154 84 99 78 94 106 119 124 135 140 144 144 147 150 153 158 159 149 147 147 149 152 150 153 176 134 107
312 319 344 354 8 1 358 2 349 345 62 64 38 335 325 85 59 50 31 358 340 344 332 262 9 22 54 40 93 106 106 114 108 109 125 144 152 150 155 155 154 157 159 151 150 150 153 137 146 158 153 150 158 168
338 327 353 18 24 12 339 9 347 325 26 349 16 349 353 44 66 66 349 317 323 345 25 30 48 27 19 16 40 104 125 129 128 111 113 144 152 156 160 158 157 160 163 157 158 165 168 154 161 169 160 165 165 178
328 314 336 19 8 40 340 331 353 23 320 318 296 294 241 222 198 183 189 195 312 25 60 41 40 30 35 44 49 87 121 149 161 160 163 161 168 169 167 164 185 162 172 174 174 170 161 175 168 164 165 168 170 175
333 340 347 354 17 23 335 341 313 308 290 321 292 269 282 246 242 216 141 81 50 36 23 4 2 359 10 21 26 40 65 67 142 167 166 170 169 177 176 184 181 183 187 187 183 180 181 184 173 170 170 179 180 170
351 352 338 339 3 29 318 318 301 270 229 267 232 255 264 253 10 344 80 68 71 18 14 7 352 344 327 11 44 33 34 97 96 167 184 182 184 187 189 198 199 191 188 189 187 186 187 186 177 176 192 197 177 179
30 23 348 9 6 37 359 333 324 318 356 350 2 331 47 21 16 66 68 61 37 20 19 18 17 19 56 54 45 25 10 353 301 128 203 203 194 191 197 203 194 198 199 191 190 191 190 185 185 180 173 172 176 182
251 47 308 112 320 121 28 24 355 356 334 333 335 3 7 318 37 76 75 80 42 30 21 18 28 36 35 27 19 9 356 10 9 23 132 182 194 181 176 177 175 183 197 189 187 193 191 185 173 166 155 162 174 182
226 126 303 108 153 19 26 330 15 8 350 360 353 6 344 318 329 69 70 47 50 27 23 23 17 28 37 33 18 7 360 22 53 75 65 136 160 178 171 168 163 160 161 180 184 185 174 169 163 160 162 159 164 165
186 153 137 55 53 60 49 68 18 356 13 300 356 359 317 290 70 76 103 46 45 31 26 26 31 34 27 24 21 23 29 37 47 64 55 65 94 151 169 163 155 173 165 162 170 182 182 175 170 165 166 160 163 168
102 161 138 130 75 79 86 23 137 167 52 9 318 335 354 18 55 64 69 68 44 31 35 37 37 41 37 36 25 35 41 38 34 43 52 69 75 88 115 142 158 176 189 185 180 176 171 176 180 184 179 180 193 225
144 124 96 55 66 108 146 143 161 82 47 312 328 10 46 68 66 65 126 131 14 51 70 47 34 40 49 35 27 35 50 73 63 72 70 56 53 52 66 83 106 127 138 162 180 191 197 199 195 191 196 201 208 220
134 154 99 106 132 168 98 33 76 91 79 4 335 300 208 148 142 202 194 214 221 132 109 96 74 62 52 46 47 30 23 47 63 80 64 52 41 36 32 47 64 97 126 151 170 176 204 205 209 212 227 241 245 236
140 139 123 127 143 76 99 122 106 93 72 202 61 276 35 60 116 222 199 211 203 184 168 153 111 80 61 44 41 39 56 338 357 5 46 82 92 38 308 329 308 292 281 267 253 237 243 243 226 210 209 218 229 239
164 138 122 150 114 123 153 201 167 216 167 209 185 181 165 232 223 171 190 190 186 187 183 144 125 104 314 352 1 350 319 329 333 294 294 286 229 242 259 265 288 292 274 265 262 260 263 265 259 248 240 232 230 236
116 127 111 112 136 175 153 218 194 203 218 234 206 171 260 334 329 119 191 167 189 201 181 178 202 254 304 333 334 341 14 349 323 340 325 315 300 294 289 278 252 254 268 272 270 264 261 264 264 262 255 254 251 255
Height
1325 1318 1310 1301 1292 1283 1274 1264 1255 1247 1238 1233 1229 1230 1228 1228 1228 1231 1235 1240 1248 1252 1255 1257 1260 1260 1265 1266 1265 1267 1268 1273 1281 1274 1263 1259 1258 1231 1252 1264 1277 1293 1307 1315 1321 1326 1325 1302 1318 1326 1323 1322 1323 1328
1321 1315 1308 1300 1291 1283 1274 1265 1256 1248 1241 1235 1228 1228 1230 1232 1235 1238 1241 1245 1249 1252 1255 1256 1257 1257 1258 1261 1266 1267 1262 1261 1266 1267 1263 1257 1255 1244 1235 1261 1268 1277 1271 1281 1287 1290 1290 1296 1309 1319 1325 1323 1328 1331
1318 1311 1304 1297 1289 1281 1273 1265 1256 1247 1240 1232 1224 1222 1227 1231 1235 1240 1242 1246 1249 1252 1254 1253 1252 1253 1250 1254 1257 1260 1258 1261 1250 1251 1254 1249 1246 1239 1240 1239 1253 1261 1266 1273 1285 1292 1290 1299 1311 1319 1322 1326 1331 1335
1315 1308 1302 1295 1287 1279 1272 1264 1255 1247 1239 1232 1223 1221 1226 1230 1235 1240 1242 1246 1251 1254 1252 1248 1247 1248 1248 1246 1246 1246 1246 1253 1248 1242 1245 1250 1246 1233 1234 1237 1245 1253 1266 1277 1283 1286 1294 1303 1308 1313 1321 1329 1333 1340
1312 1306 1299 1293 1286 1278 1271 1263 1255 1247 1240 1233 1226 1221 1224 1229 1234 1238 1240 1242 1247 1250 1245 1245 1244 1239 1238 1237 1237 1237 1240 1244 1238 1240 1242 1251 1252 1246 1242 1249 1250 1252 1262 1269 1276 1279 1282 1294 1303 1312 1321 1329 1336 1342
1309 1303 1297 1291 1285 1277 1269 1262 1255 1247 1241 1235 1228 1224 1224 1227 1231 1236 1240 1239 1240 1246 1245 1241 1243 1239 1236 1231 1224 1224 1229 1230 1232 1236 1243 1251 1254 1253 1251 1250 1246 1248 1260 1263 1271 1280 1288 1295 1303 1312 1320 1328 1336 1343
1305 1300 1295 1289 1283 1276 1269 1261 1254 1248 1243 1240 1234 1229 1227 1227 1228 1233 1235 1232 1234 1241 1243 1242 1241 1241 1237 1232 1229 1227 1228 1227 1233 1239 1245 1250 1252 1249 1244 1237 1240 1259 1260 1268 1273 1283 1290 1295 1301 1312 1321 1329 1337 1343
1302 1297 1292 1286 1281 1275 1268 1260 1254 1248 1244 1242 1239 1237 1234 1233 1233 1234 1234 1234 1235 1239 1241 1238 1238 1240 1239 1236 1231 1233 1232 1234 1239 1236 1242 1246 1248 1248 1236 1235 1245 1252 1260 1269 1275 1283 1289 1300 1305 1313 1321 1328 1335 1341
1298 1294 1289 1284 1278 1272 1267 1259 1253 1247 1244 1242 1240 1240 1239 1238 1238 1238 1237 1238 1237 1241 1238 1238 1232 1235 1242 1241 1239 1236 1235 1234 1243 1239 1247 1246 1242 1245 1236 1248 1254 1250 1259 1273 1283 1285 1294 1301 1306 1315 1321 1327 1334 1339
1294 1290 1286 1281 1276 1270 1265 1259 1251 1246 1244 1242 1242 1241 1240 1240 1239 1239 1239 1239 1239 1238 1238 1236 1234 1238 1242 1241 1244 1245 1242 1242 1246 1249 1240 1241 1238 1235 1235 1248 1254 1260 1267 1280 1285 1292 1299 1301 1307 1311 1317 1326 1333 1338
1290 1286 1282 1278 1273 1268 1263 1258 1252 1246 1246 1245 1243 1240 1240 1239 1239 1238 1236 1234 1233 1234 1235 1238 1238 1238 1241 1241 1241 1245 1249 1247 1254 1257 1253 1249 1254 1252 1254 1256 1262 1265 1274 1289 1292 1296 1299 1304 1309 1310 1317 1324 1331 1336
1285 1282 1279 1274 1270 1266 1261 1256 1252 1248 1247 1246 1244 1241 1240 1238 1235 1234 1230 1228 1224 1228 1236 1238 1240 1240 1241 1240 1241 1241 1243 1247 1250 1250 1250 1251 1256 1257 1258 1263 1266 1268 1279 1288 1293 1299 1303 1307 1311 1314 1319 1324 1330 1331
1281 1278 1275 1271 1267 1263 1259 1255 1251 1247 1243 1244 1243 1241 1239 1236 1233 1229 1229 1223 1229 1231 1235 1238 1239 1241 1241 1241 1241 1241 1240 1245 1244 1247 1246 1252 1257 1263 1264 1269 1275 1280 1282 1287 1293 1302 1306 1307 1311 1317 1320 1321 1324 1327
1277 1274 1271 1268 1264 1261 1257 1253 1249 1245 1245 1243 1241 1239 1238 1232 1231 1233 1232 1225 1227 1229 1234 1236 1237 1236 1239 1238 1239 1243 1243 1243 1241 1242 1239 1254 1260 1265 1270 1274 1280 1284 1286 1291 1297 1302 1308 1311 1315 1317 1317 1317 1323 1329
1274 1271 1269 1266 1262 1258 1254 1251 1248 1247 1247 1245 1242 1239 1240 1241 1240 1238 1234 1230 1230 1233 1236 1238 1238 1238 1239 1242 1238 1244 1247 1241 1235 1236 1245 1256 1262 1267 1272 1277 1281 1284 1288 1293 1299 1306 1310 1312 1313 1314 1316 1321 1322 1326
1272 1269 1268 1265 1260 1256 1252 1249 1248 1248 1247 1245 1245 1243 1240 1238 1240 1239 1235 1235 1236 1238 1240 1240 1238 1240 1240 1240 1238 1238 1234 1234 1237 1244 1252 1260 1266 1272 1276 1280 1285 1289 1294 1299 1303 1306 1310 1312 1313 1315 1318 1317 1322 1323
1271 1270 1266 1262 1258 1254 1252 1251 1250 1248 1246 1245 1247 1247 1242 1238 1241 1240 1241 1241 1241 1242 1239 1238 1239 1238 1239 1235 1232 1235 1241 1246 1250 1256 1261 1265 1270 1275 1280 1284 1289 1293 1298 1302 1306 1308 1309 1310 1311 1314 1318 1319 1319 1323
1271 1270 1265 1261 1256 1255 1252 1253 1252 1249 1247 1249 1247 1248 1247 1245 1244 1244 1245 1245 1245 1242 1240 1241 1238 1237 1239 1235 1241 1249 1251 1253 1256 1260 1265 1269 1274 1279 1283 1288 1292 1296 1299 1301 1303 1305 1306 1310 1314 1315 1315 1318 1320 1321
1269 1267 1264 1261 1258 1257 1257 1256 1255 1250 1252 1252 1252 1251 1250 1249 1248 1248 1248 1248 1247 1246 1244 1241 1241 1239 1243 1247 1250 1254 1256 1259 1262 1267 1270 1275 1279 1282 1286 1290 1293 1296 1298 1299 1302 1304 1307 1310 1312 1314 1316 1318 1320 1321
1267 1265 1264 1262 1260 1260 1259 1259 1257 1254 1252 1254 1253 1253 1251 1251 1251 1251 1251 1251 1249 1248 1248 1247 1254 1261 1259 1257 1256 1257 1260 1262 1265 1269 1274 1278 1281 1284 1287 1289 1291 1293 1296 1299 1302 1304 1306 1309 1311 1312 1314 1317 1319 1322
1266 1266 1264 1263 1262 1262 1261 1260 1258 1257 1256 1255 1254 1252 1251 1251 1251 1252 1251 1253 1252 1254 1257 1266 1266 1265 1264 1263 1261 1263 1265 1267 1269 1272 1274 1277 1280 1283 1285 1287 1289 1291 1294 1297 1299 1303 1306 1309 1311 1313 1314 1318 1319 1320
1266 1266 1264 1264 1264 1262 1262 1260 1259 1257 1256 1253 1252 1251 1250 1251 1251 1251 1252 1255 1265 1272 1272 1271 1270 1269 1268 1268 1268 1268 1268 1269 1271 1272 1275 1278 1281 1284 1286 1289 1291 1294 1296 1298 1301 1304 1306 1309 1311 1313 1315 1316 1317 1319
1266 1266 1266 1265 1265 1263 1264 1260 1259 1255 1254 1253 1251 1250 1250 1250 1251 1252 1257 1266 1275 1278 1276 1274 1272 1269 1268 1269 1270 1270 1271 1271 1272 1274 1275 1278 1280 1283 1285 1288 1290 1292 1295 1297 1300 1303 1305 1308 1310 1312 1313 1315 1317 1319
1267 1267 1267 1265 1264 1264 1264 1262 1259 1257 1257 1255 1255 1254 1255 1256 1257 1261 1269 1277 1282 1281 1278 1276 1274 1272 1271 1271 1272 1273 1272 1273 1273 1274 1275 1277 1279 1281 1284 1286 1289 1291 1293 1295 1299 1301 1304 1306 1308 1310 1312 1314 1316 1318
1269 1269 1269 1267 1266 1264 1264 1263 1264 1262 1263 1260 1259 1259 1262 1259 1259 1264 1271 1281 1284 1284 1283 1281 1279 1278 1277 1277 1277 1277 1275 1274 1273 1273 1272 1274 1277 1279 1282 1285 1287 1289 1291 1293 1296 1300 1303 1305 1307 1309 1311 1313 1315 1317
1265 1268 1267 1265 1265 1264 1264 1264 1265 1266 1266 1268 1266 1267 1266 1264 1262 1270 1280 1286 1288 1288 1287 1286 1284 1283 1283 1282 1282 1280 1277 1275 1274 1273 1273 1272 1273 1277 1278 1281 1284 1288 1290 1293 1295 1299 1302 1304 1306 1308 1310 1311 1314 1316
1265 1265 1266 1268 1267 1267 1268 1270 1271 1271 1273 1272 1272 1273 1271 1268 1271 1282 1287 1289 1290 1290 1289 1288 1288 1287 1286 1285 1284 1283 1281 1278 1277 1277 1277 1275 1273 1273 1277 1282 1284 1287 1289 1292 1295 1298 1301 1303 1305 1307 1309 1311 1312 1314
1264 1265 1269 1270 1270 1271 1274 1274 1275 1275 1274 1277 1276 1275 1276 1278 1282 1288 1290 1291 1291 1291 1290 1290 1289 1289 1288 1288 1286 1284 1283 1282 1282 1281 1280 1279 1279 1278 1278 1281 1284 1286 1289 1291 1293 1296 1298 1301 1303 1305 1308 1310 1312 1313
1265 1266 1270 1274 1272 1273 1274 1274 1274 1277 1281 1279 1278 1278 1280 1285 1288 1289 1290 1291 1291 1291 1291 1291 1291 1290 1290 1289 1288 1286 1285 1284 1285 1284 1284 1285 1285 1285 1286 1286 1287 1288 1290 1291 1293 1295 1297 1299 1300 1302 1304 1306 1308 1309
1266 1267 1270 1274 1275 1273 1275 1277 1278 1281 1282 1283 1284 1284 1284 1286 1288 1288 1290 1290 1291 1291 1291 1292 1292 1292 1292 1291 1291 1290 1288 1288 1287 1287 1288 1289 1290 1290 1289 1289 1290 1290 1291 1292 1293 1295 1296 1297 1299 1300 1302 1304 1305 1307
1267 1268 1269 1270 1272 1276 1278 1280 1281 1282 1283 1283 1284 1284 1284 1286 1287 1287 1288 1289 1290 1290 1291 1291 1292 1292 1292 1292 1292 1292 1292 1290 1290 1289 1289 1290 1290 1291 1290 1290 1290 1291 1291 1292 1293 1293 1294 1295 1296 1298 1299 1301 1303 1304
1267 1267 1270 1271 1274 1279 1280 1280 1279 1280 1281 1282 1282 1284 1285 1286 1285 1286 1286 1288 1289 1289 1289 1290 1291 1291 1291 1291 1291 1291 1289 1289 1289 1288 1287 1288 1288 1288 1288 1289 1289 1289 1290 1290 1291 1291 1292 1293 1294 1295 1296 1297 1299 1300
1270 1270 1271 1273 1276 1276 1280 1280 1278 1279 1280 1279 1279 1281 1282 1283 1283 1285 1285 1286 1288 1288 1288 1290 1290 1290 1289 1289 1288 1288 1288 1288 1287 1287 1286 1285 1285 1285 1286 1286 1286 1287 1287 1287 1288 1288 1289 1290 1291 1291 1292 1294 1295 1295